Weather past 2 weeks in Willemstad, Curaçao

Now
86 °F

Scattered clouds.


Feels Like: 97 °F
Forecast: 82 / 89 °F
Wind: 9 mph from Southeast

Location: Hato Airport - Curacao

Current Time: Sep 17, 2014 at 9:52:50 AM

Latest Report: Sep 17, 2014 at 9:00 AM


Visibility: N/A

Pressure: 29.95 "Hg

Humidity: 75%

Dew point: 77 °F

Location of WillemstadLocation

Historic Weather in Willemstad — Graph

°F

Willemstad temperature yesterday

Maximum temperature yesterday: 90 °F (at 1:00 PM)
Minimum temperature yesterday: 81 °F (at 6:00 AM)
Average temperature yesterday: 85 °F

Past Weeks' High & Low Weather Summary

 TemperatureHumidityPressure
High93 °F (Sep 5, 12:00 PM)89% (Sep 4, 5:00 AM)30.01 "Hg (Sep 4, 5:00 AM)
Low81 °F (Sep 11, 6:00 AM)56% (Sep 5, 12:00 PM)29.80 "Hg (Sep 6, 4:00 PM)
Average85 °F75%29.90 "Hg
* Reported Sep 2 8:00 AM — Sep 17 8:00 AM, Willemstad, Weather by CustomWeather, © 2014

Note: Actual official high and low records may vary slightly from our data, if they occured in-between our weather recording intervals... More about our weather records

Advertising

Willemstad weather history for previous 24 hours

 ConditionsComfort  
Time TempWeatherWind HumidityBarometerVisibility
8:00 AM
Sep 17
84 °FPassing clouds.10 mph79%29.95 "HgN/A
7:00 AM82 °FPassing clouds.7 mph84%29.89 "HgN/A
6:00 AM81 °FPassing clouds.6 mph89%29.89 "HgN/A
5:00 AM82 °FPassing clouds.9 mph84%29.89 "HgN/A
4:00 AM82 °FPassing clouds.9 mph84%29.86 "HgN/A
3:00 AM82 °FPassing clouds.9 mph84%29.86 "HgN/A
2:00 AM82 °FPassing clouds.7 mph79%29.89 "HgN/A
1:00 AM82 °FPassing clouds.8 mph84%29.92 "HgN/A
12:00 AM82 °FPassing clouds.10 mph84%29.92 "HgN/A
11:00 PM
Sep 16
82 °FPassing clouds.8 mph79%29.95 "HgN/A
10:00 PM82 °FPassing clouds.9 mph79%29.95 "HgN/A
9:00 PM84 °FPassing clouds.9 mph79%29.92 "HgN/A
8:00 PM82 °FPassing clouds.10 mph84%29.89 "HgN/A
7:00 PM84 °FPassing clouds.10 mph79%29.86 "HgN/A
6:00 PM84 °FPassing clouds.12 mph79%29.83 "HgN/A
5:00 PM86 °FPassing clouds.12 mph75%29.83 "HgN/A
4:00 PM88 °FPassing clouds.13 mph70%29.83 "HgN/A
3:00 PM88 °FPassing clouds.14 mph70%29.86 "HgN/A
1:00 PM90 °FScattered clouds.13 mph67%29.92 "HgN/A
12:00 PM88 °FScattered clouds.13 mph70%29.95 "HgN/A
11:00 AM88 °FScattered clouds.13 mph70%29.98 "HgN/A
10:00 AM86 °FScattered clouds.10 mph75%29.98 "HgN/A
9:00 AM86 °FScattered clouds.10 mph75%29.98 "HgN/A
Weather by CustomWeather, © 2014

See weather overviewHow to use our weather pages